| time (UTC) | temp F | wind direction | speed knots | gust knots | rain 1hr in | rain 24hr in | rain mn in | humidity % | barometer mb |
| 20260504202551 | 74 | 208 | 2.6 | 12.2 | 0.00 | 0.00 | 0.00 | 40 | 1008.9 |
| 20260504202048 | 74 | 277 | 0.0 | 12.2 | 0.00 | 0.00 | 0.00 | 40 | 1009.1 |
| 20260504201557 | 74 | 0 | 0.9 | 11.3 | 0.00 | 0.00 | 0.00 | 40 | 1009.1 |
| 20260504201050 | 74 | 141 | 0.9 | 10.4 | 0.00 | 0.00 | 0.00 | 40 | 1009.1 |
| 20260504200551 | 74 | 0 | 1.7 | 10.4 | 0.00 | 0.00 | 0.00 | 41 | 1009.3 |
| 20260504200057 | 73 | 0 | 1.7 | 10.4 | 0.00 | 0.00 | 0.00 | 40 | 1009.4 |
| 20260504195550 | 74 | 233 | 1.7 | 7.8 | 0.00 | 0.00 | 0.00 | 41 | 1009.5 |
| 20260504195051 | 73 | 0 | 0.9 | 11.3 | 0.00 | 0.00 | 0.00 | 42 | 1009.5 |
| 20260504194600 | 74 | 259 | 0.0 | 11.3 | 0.00 | 0.00 | 0.00 | 41 | 1009.6 |
| 20260504194049 | 73 | 277 | 2.6 | 15.6 | 0.00 | 0.00 | 0.00 | 42 | 1009.7 |
| 20260504193551 | 73 | 252 | 0.9 | 16.5 | 0.00 | 0.00 | 0.00 | 44 | 1009.8 |
| 20260504193053 | 73 | 245 | 2.6 | 16.5 | 0.00 | 0.00 | 0.00 | 42 | 1009.7 |
| 20260504192551 | 73 | 278 | 0.9 | 13.0 | 0.00 | 0.00 | 0.00 | 41 | 1009.8 |
| 20260504192053 | 73 | 331 | 1.7 | 13.0 | 0.00 | 0.00 | 0.00 | 41 | 1010.0 |
| 20260504191551 | 73 | 250 | 1.7 | 12.2 | 0.00 | 0.00 | 0.00 | 43 | 1010.0 |
| 20260504191051 | 73 | 0 | 2.6 | 12.2 | 0.00 | 0.00 | 0.00 | 41 | 1010.0 |
| 20260504190551 | 73 | 201 | 1.7 | 13.0 | 0.00 | 0.00 | 0.00 | 40 | 1010.1 |
| 20260504190121 | 73 | 195 | 2.6 | 13.0 | 0.00 | 0.00 | 0.00 | 42 | 1010.1 |
| 20260504185551 | 73 | 0 | 0.9 | 14.8 | 0.00 | 0.00 | 0.00 | 41 | 1010.2 |
| 20260504185049 | 73 | 0 | 1.7 | 14.8 | 0.00 | 0.00 | 0.00 | 42 | 1010.2 |
| 20260504184552 | 73 | 285 | 1.7 | 12.2 | 0.00 | 0.00 | 0.00 | 43 | 1010.3 |
| 20260504184051 | 72 | 0 | 1.7 | 12.2 | 0.00 | 0.00 | 0.00 | 44 | 1010.4 |
| 20260504183551 | 72 | 180 | 0.9 | 11.3 | 0.00 | 0.00 | 0.00 | 41 | 1010.5 |
| 20260504183052 | 72 | 246 | 1.7 | 11.3 | 0.00 | 0.00 | 0.00 | 40 | 1010.6 |
| 20260504182548 | 72 | 294 | 0.9 | 7.8 | 0.00 | 0.00 | 0.00 | 41 | 1010.5 |
| 20260504182050 | 72 | 0 | 0.0 | 7.8 | 0.00 | 0.00 | 0.00 | 43 | 1010.7 |
| 20260504181550 | 72 | 227 | 0.9 | 7.8 | 0.00 | 0.00 | 0.00 | 44 | 1010.7 |
| 20260504181051 | 72 | 250 | 0.0 | 6.1 | 0.00 | 0.00 | 0.00 | 41 | 1010.8 |
| 20260504180552 | 72 | 290 | 0.9 | 6.1 | 0.00 | 0.00 | 0.00 | 42 | 1010.8 |
| 20260504180054 | 71 | 251 | 0.0 | 13.0 | 0.00 | 0.00 | 0.00 | 43 | 1010.9 |
| 20260504175554 | 71 | 215 | 0.9 | 13.0 | 0.00 | 0.00 | 0.00 | 40 | 1011.0 |
| 20260504175052 | 71 | 238 | 0.9 | 12.2 | 0.00 | 0.00 | 0.00 | 41 | 1011.1 |
| 20260504174555 | 71 | 252 | 0.9 | 12.2 | 0.00 | 0.00 | 0.00 | 41 | 1011.0 |
| 20260504174052 | 71 | 0 | 0.9 | 12.2 | 0.00 | 0.00 | 0.00 | 42 | 1011.2 |
| 20260504173551 | 71 | 215 | 0.9 | 10.4 | 0.00 | 0.00 | 0.00 | 45 | 1011.3 |
| 20260504173051 | 70 | 265 | 0.9 | 10.4 | 0.00 | 0.00 | 0.00 | 43 | 1011.3 |
| 20260504172550 | 70 | 269 | 0.9 | 10.4 | 0.00 | 0.00 | 0.00 | 42 | 1011.6 |
| 20260504172050 | 70 | 294 | 0.0 | 7.8 | 0.00 | 0.00 | 0.00 | 43 | 1011.6 |
| 20260504171553 | 70 | 0 | 0.9 | 7.8 | 0.00 | 0.00 | 0.00 | 42 | 1011.6 |
| 20260504171051 | 70 | 0 | 0.9 | 7.0 | 0.00 | 0.00 | 0.00 | 43 | 1011.7 |
| 20260504170550 | 70 | 0 | 0.0 | 13.0 | 0.00 | 0.00 | 0.00 | 43 | 1011.8 |
| 20260504151048 | 65 | 246 | 0.9 | 11.3 | 0.00 | 0.00 | 0.00 | 45 | 1013.3 |
| 20260504150551 | 65 | 207 | 0.9 | 9.6 | 0.00 | 0.00 | 0.00 | 44 | 1013.3 |
| 20260504141051 | 61 | 230 | 0.9 | 8.7 | 0.00 | 0.00 | 0.00 | 50 | 1013.6 |
| 20260504140551 | 61 | 190 | 0.0 | 1.7 | 0.00 | 0.00 | 0.00 | 53 | 1013.6 |
| 20260504130551 | 56 | 0 | 0.0 | 3.5 | 0.00 | 0.00 | 0.00 | 58 | 1013.8 |
| 20260504110553 | 38 | 0 | 0.0 | 0.0 | 0.00 | 0.00 | 0.00 | 88 | 1013.9 |
| 20260504100552 | 36 | 0 | 0.0 | 0.0 | 0.00 | 0.00 | 0.00 | 88 | 1014.1 |
| 20260504081607 | 40 | 0 | 0.0 | 0.0 | 0.00 | 0.00 | 0.00 | 81 | 1014.4 |
| 20260504081050 | 40 | 0 | 0.0 | 0.0 | 0.00 | 0.00 | 0.00 | 81 | 1014.4 |
| 20260504080551 | 39 | 0 | 0.0 | 0.0 | 0.00 | 0.00 | 0.00 | 81 | 1014.4 |
| 20260504060115 | 45 | 0 | 0.0 | 0.0 | 0.00 | 0.00 | 0.00 | 68 | 1014.5 |
| 20260504050550 | 44 | 184 | 0.0 | 0.9 | 0.00 | 0.00 | 0.00 | 70 | 1014.7 |
| 20260504050117 | 45 | 0 | 0.0 | 0.0 | 0.00 | 0.00 | 0.00 | 70 | 1014.8 |
| 20260504045549 | 45 | 0 | 0.0 | 0.0 | 0.00 | 0.00 | 0.00 | 69 | 1014.8 |
| 20260504045048 | 45 | 0 | 0.0 | 0.0 | 0.00 | 0.00 | 0.00 | 68 | 1014.7 |
| 20260504044553 | 45 | 0 | 0.0 | 0.0 | 0.00 | 0.00 | 0.00 | 69 | 1014.7 |
| 20260504044054 | 45 | 0 | 0.0 | 0.0 | 0.00 | 0.00 | 0.00 | 69 | 1014.6 |
| 20260504043551 | 46 | 0 | 0.0 | 0.0 | 0.00 | 0.00 | 0.00 | 67 | 1014.6 |
| 20260504043106 | 46 | 0 | 0.0 | 0.0 | 0.00 | 0.00 | 0.00 | 68 | 1014.5 |
| 20260504042550 | 46 | 0 | 0.0 | 0.0 | 0.00 | 0.00 | 0.00 | 67 | 1014.6 |
| 20260504042051 | 45 | 0 | 0.0 | 0.0 | 0.00 | 0.00 | 0.00 | 68 | 1014.5 |
| 20260504041550 | 45 | 0 | 0.0 | 0.0 | 0.00 | 0.00 | 0.00 | 68 | 1014.4 |
| 20260504041050 | 45 | 0 | 0.0 | 0.0 | 0.00 | 0.00 | 0.00 | 67 | 1014.3 |
| 20260504040550 | 46 | 0 | 0.0 | 0.0 | 0.00 | 0.00 | 0.00 | 67 | 1014.3 |
| 20260504040108 | 46 | 0 | 0.0 | 0.9 | 0.00 | 0.00 | 0.00 | 67 | 1014.4 |
| 20260504035551 | 46 | 0 | 0.0 | 0.9 | 0.00 | 0.00 | 0.00 | 67 | 1014.3 |
| 20260504035051 | 46 | 0 | 0.0 | 0.9 | 0.00 | 0.00 | 0.00 | 66 | 1014.3 |
| 20260504034551 | 47 | 0 | 0.0 | 0.9 | 0.00 | 0.00 | 0.00 | 66 | 1014.3 |
| 20260504034048 | 47 | 0 | 0.0 | 0.9 | 0.00 | 0.00 | 0.00 | 65 | 1014.3 |
| 20260504033548 | 47 | 0 | 0.0 | 0.9 | 0.00 | 0.00 | 0.00 | 65 | 1014.3 |
| 20260504033057 | 47 | 0 | 0.0 | 0.9 | 0.00 | 0.00 | 0.00 | 65 | 1014.3 |
| 20260504032551 | 46 | 0 | 0.0 | 0.9 | 0.00 | 0.00 | 0.00 | 66 | 1014.2 |
| 20260504032052 | 46 | 0 | 0.0 | 0.9 | 0.00 | 0.00 | 0.00 | 67 | 1014.3 |
| 20260504031604 | 46 | 0 | 0.0 | 0.9 | 0.00 | 0.00 | 0.00 | 66 | 1014.2 |
| 20260504031050 | 46 | 0 | 0.0 | 0.9 | 0.00 | 0.00 | 0.00 | 65 | 1014.1 |
| 20260504030551 | 47 | 0 | 0.0 | 0.9 | 0.00 | 0.00 | 0.00 | 65 | 1014.2 |
| 20260504030056 | 46 | 0 | 0.0 | 0.9 | 0.00 | 0.00 | 0.00 | 65 | 1014.1 |
| 20260504025551 | 46 | 0 | 0.0 | 0.9 | 0.00 | 0.00 | 0.00 | 65 | 1014.1 |
| 20260504025050 | 46 | 0 | 0.0 | 0.9 | 0.00 | 0.00 | 0.00 | 65 | 1014.1 |
| 20260504024553 | 47 | 0 | 0.0 | 0.9 | 0.00 | 0.00 | 0.00 | 66 | 1014.0 |
| 20260504024048 | 47 | 0 | 0.0 | 0.9 | 0.00 | 0.00 | 0.00 | 64 | 1014.0 |
| 20260504023548 | 47 | 0 | 0.0 | 0.0 | 0.00 | 0.00 | 0.00 | 64 | 1014.0 |
| 20260504023054 | 48 | 0 | 0.0 | 0.0 | 0.00 | 0.00 | 0.00 | 63 | 1014.0 |
| 20260504022551 | 48 | 0 | 0.0 | 0.9 | 0.00 | 0.00 | 0.00 | 62 | 1014.1 |
| 20260504022050 | 48 | 0 | 0.0 | 0.9 | 0.00 | 0.00 | 0.00 | 62 | 1014.1 |
| 20260504021555 | 48 | 0 | 0.0 | 0.9 | 0.00 | 0.00 | 0.00 | 62 | 1014.2 |
| 20260504021050 | 48 | 0 | 0.0 | 0.9 | 0.00 | 0.00 | 0.00 | 62 | 1014.2 |
| 20260504020550 | 48 | 0 | 0.0 | 0.9 | 0.00 | 0.00 | 0.00 | 62 | 1014.2 |
| 20260504020057 | 48 | 0 | 0.0 | 0.9 | 0.00 | 0.00 | 0.00 | 62 | 1014.0 |
| 20260504015551 | 48 | 0 | 0.0 | 0.9 | 0.00 | 0.00 | 0.00 | 61 | 1014.1 |
| 20260504015051 | 48 | 0 | 0.0 | 0.0 | 0.00 | 0.00 | 0.00 | 62 | 1014.1 |
| 20260504014601 | 49 | 0 | 0.0 | 0.0 | 0.00 | 0.00 | 0.00 | 60 | 1014.0 |
| 20260504014050 | 49 | 0 | 0.0 | 0.0 | 0.00 | 0.00 | 0.00 | 61 | 1014.0 |
| 20260504013551 | 49 | 0 | 0.0 | 0.0 | 0.00 | 0.00 | 0.00 | 60 | 1013.9 |
| 20260504013112 | 49 | 0 | 0.0 | 0.0 | 0.00 | 0.00 | 0.00 | 59 | 1013.9 |
| 20260504012552 | 50 | 0 | 0.0 | 0.0 | 0.00 | 0.00 | 0.00 | 60 | 1013.8 |
| 20260504012050 | 50 | 0 | 0.0 | 0.0 | 0.00 | 0.00 | 0.00 | 57 | 1013.8 |
| 20260504011554 | 50 | 0 | 0.0 | 0.9 | 0.00 | 0.00 | 0.00 | 57 | 1013.8 |
| 20260504011051 | 51 | 0 | 0.0 | 0.9 | 0.00 | 0.00 | 0.00 | 56 | 1013.7 |
| 20260504010551 | 51 | 0 | 0.0 | 0.9 | 0.00 | 0.00 | 0.00 | 56 | 1013.7 |
| 20260504010111 | 51 | 0 | 0.0 | 0.0 | 0.00 | 0.00 | 0.00 | 56 | 1013.7 |
| 20260504005549 | 52 | 0 | 0.0 | 0.0 | 0.00 | 0.00 | 0.00 | 53 | 1013.7 |
| 20260504005051 | 53 | 0 | 0.0 | 0.0 | 0.00 | 0.00 | 0.00 | 52 | 1013.6 |
| 20260504004550 | 53 | 0 | 0.0 | 0.0 | 0.00 | 0.00 | 0.00 | 50 | 1013.6 |
| 20260504004053 | 54 | 0 | 0.0 | 0.0 | 0.00 | 0.00 | 0.00 | 49 | 1013.5 |
| 20260504003550 | 55 | 0 | 0.0 | 0.9 | 0.00 | 0.00 | 0.00 | 49 | 1013.5 |
| 20260504003053 | 55 | 0 | 0.0 | 0.9 | 0.00 | 0.00 | 0.00 | 47 | 1013.5 |
| 20260504002550 | 55 | 0 | 0.0 | 0.9 | 0.00 | 0.00 | 0.00 | 46 | 1013.4 |
| 20260504002050 | 56 | 284 | 0.0 | 0.9 | 0.00 | 0.00 | 0.00 | 46 | 1013.4 |
| 20260504001559 | 56 | 0 | 0.0 | 0.9 | 0.00 | 0.00 | 0.00 | 45 | 1013.2 |
| 20260504001048 | 56 | 279 | 0.0 | 1.7 | 0.00 | 0.00 | 0.00 | 44 | 1013.2 |
| 20260504000550 | 57 | 0 | 0.0 | 1.7 | 0.00 | 0.00 | 0.00 | 45 | 1013.1 |
| 20260504000055 | 57 | 0 | 0.0 | 1.7 | 0.00 | 0.00 | 0.00 | 44 | 1013.1 |
| 20260503235551 | 57 | 284 | 0.0 | 1.7 | 0.00 | 0.00 | 0.00 | 43 | 1013.1 |
| 20260503235048 | 58 | 0 | 0.0 | 5.2 | 0.00 | 0.00 | 0.00 | 44 | 1012.8 |
| 20260503234555 | 58 | 0 | 0.0 | 5.2 | 0.00 | 0.00 | 0.00 | 43 | 1012.9 |
| 20260503234053 | 58 | 0 | 0.0 | 6.1 | 0.00 | 0.00 | 0.00 | 42 | 1012.9 |
| 20260503233551 | 58 | 0 | 0.0 | 6.1 | 0.00 | 0.00 | 0.00 | 41 | 1012.8 |
| 20260503233100 | 59 | 0 | 0.0 | 10.4 | 0.00 | 0.00 | 0.00 | 42 | 1012.8 |
| 20260503232550 | 59 | 0 | 0.0 | 10.4 | 0.00 | 0.00 | 0.00 | 41 | 1012.7 |
| 20260503232050 | 59 | 309 | 0.9 | 7.0 | 0.00 | 0.00 | 0.00 | 40 | 1012.8 |
| 20260503231555 | 59 | 284 | 0.0 | 7.0 | 0.00 | 0.00 | 0.00 | 41 | 1012.7 |
| 20260503231050 | 59 | 0 | 0.0 | 7.0 | 0.00 | 0.00 | 0.00 | 42 | 1012.8 |
| 20260503230550 | 59 | 265 | 0.0 | 10.4 | 0.00 | 0.00 | 0.00 | 42 | 1012.8 |
| 20260503230058 | 59 | 251 | 0.9 | 10.4 | 0.00 | 0.00 | 0.00 | 41 | 1012.8 |
| 20260503225552 | 59 | 0 | 0.0 | 7.0 | 0.00 | 0.00 | 0.00 | 40 | 1012.8 |
| 20260503225047 | 59 | 223 | 0.9 | 7.0 | 0.00 | 0.00 | 0.00 | 40 | 1012.8 |
| 20260503224555 | 59 | 0 | 0.9 | 3.5 | 0.00 | 0.00 | 0.00 | 40 | 1012.7 |
| 20260503224051 | 59 | 0 | 0.0 | 7.0 | 0.00 | 0.00 | 0.00 | 39 | 1012.8 |
| 20260503223551 | 60 | 296 | 0.0 | 7.0 | 0.00 | 0.00 | 0.00 | 39 | 1012.8 |
| 20260503223058 | 60 | 5 | 0.0 | 12.2 | 0.00 | 0.00 | 0.00 | 40 | 1012.8 |
| 20260503222548 | 60 | 0 | 0.0 | 12.2 | 0.00 | 0.00 | 0.00 | 39 | 1012.8 |
| 20260503222050 | 60 | 0 | 1.7 | 12.2 | 0.00 | 0.00 | 0.00 | 38 | 1012.8 |
| 20260503221559 | 60 | 298 | 0.0 | 7.0 | 0.00 | 0.00 | 0.00 | 41 | 1012.7 |
| 20260503221052 | 60 | 0 | 0.0 | 10.4 | 0.00 | 0.00 | 0.00 | 40 | 1012.7 |
| 20260503220552 | 60 | 301 | 0.0 | 10.4 | 0.00 | 0.00 | 0.00 | 40 | 1012.7 |
| 20260503215552 | 60 | 333 | 0.9 | 8.7 | 0.00 | 0.00 | 0.00 | 38 | 1012.7 |
| 20260503215051 | 60 | 256 | 1.7 | 8.7 | 0.00 | 0.00 | 0.00 | 39 | 1012.7 |
| 20260503214558 | 61 | 267 | 0.0 | 8.7 | 0.00 | 0.00 | 0.00 | 38 | 1012.7 |
| 20260503214054 | 60 | 0 | 0.9 | 8.7 | 0.00 | 0.00 | 0.00 | 40 | 1012.7 |
| 20260503213554 | 60 | 302 | 0.0 | 8.7 | 0.00 | 0.00 | 0.00 | 39 | 1012.7 |
| 20260503213055 | 60 | 269 | 0.9 | 8.7 | 0.00 | 0.00 | 0.00 | 39 | 1012.8 |
| 20260503212553 | 60 | 0 | 0.9 | 10.4 | 0.00 | 0.00 | 0.00 | 38 | 1012.7 |
| 20260503212053 | 60 | 282 | 0.0 | 10.4 | 0.00 | 0.00 | 0.00 | 40 | 1012.6 |
| 20260503211551 | 60 | 241 | 0.0 | 6.1 | 0.00 | 0.00 | 0.00 | 41 | 1012.7 |
| 20260503211052 | 60 | 282 | 0.0 | 13.0 | 0.00 | 0.00 | 0.00 | 38 | 1012.6 |
| 20260503210552 | 60 | 0 | 0.9 | 13.0 | 0.00 | 0.00 | 0.00 | 40 | 1012.7 |
| 20260503210058 | 60 | 289 | 1.7 | 12.2 | 0.00 | 0.00 | 0.00 | 39 | 1012.7 |
| 20260503205554 | 60 | 0 | 0.9 | 10.4 | 0.00 | 0.00 | 0.00 | 39 | 1012.7 |
| 20260503205052 | 60 | 281 | 2.6 | 10.4 | 0.00 | 0.00 | 0.00 | 39 | 1012.6 |
| 20260503204609 | 59 | 296 | 0.0 | 7.8 | 0.00 | 0.00 | 0.00 | 40 | 1012.7 |
| 20260503204051 | 59 | 0 | 0.0 | 10.4 | 0.00 | 0.00 | 0.00 | 38 | 1012.8 |
| 20260503203552 | 60 | 246 | 2.6 | 10.4 | 0.00 | 0.00 | 0.00 | 39 | 1012.8 |
| 20260503203101 | 60 | 267 | 0.9 | 8.7 | 0.00 | 0.00 | 0.00 | 38 | 1012.8 |